Location: Newark
(33.6439°N, 114.9881°W)
Time: 20:38:01
(UTC+00:00)

A-11 Canister half - Pass Details

Date: 31 August 2019
Orbit: 1527 x 1682 km, 47.3° (Epoch: 22 September)

Event Time Altitude Azimuth Distance (km) Brightness Sun altitude
Rises 23:57:57 0° 305° (NW) 4,926 12.3 26.2°
Reaches altitude 10° 00:01:07 10° 304° (NW) 3,942 12.0 25.5°
Maximum altitude 00:11:14 74° 222° (SW) 1,733 9.9 23.4°
Drops below altitude 10° 00:21:14 10° 139° (SE) 3,898 10.8 21.3°
Sets 00:24:21 0° 137° (SE) 4,867 11.3 20.7°
